Driggs, ID

8:56 AM MST on February 08, 2016 (GMT -0700)
Driggs | | Change Station
CLOSE
Current Station
Airport
Location: Driggs,
Elevation: 6227 ft
Nearby Weather Stations
Active Advisory: Dense Fog Advisory

Elev 6227 ft 43.74 °N, 111.10 °W | Updated 11 minutes ago

Overcast
Overcast
12 °F
Feels Like 3 °F
N
6
Wind Variable Wind from SE

Today
High -- | Low -- °F
--% Chance of Precip.
Yesterday
High -- | Low -- °F
Precip. -- in
Pressure 30.70 in
Visibility 0.8 miles
Clouds Overcast 300 ft
Windchill 3 °F
Dew Point 10 °F
Humidity 92%
Rainfall 0.00 in
Snow Depth Not available.
7:33 AM 5:44 PM
New Moon, 0% visible
SPECI KDIJ 081545Z AUTO 13005KT 3/4SM BR OVC003 M11/M12 A3070 RMK AO2
Pressure 30.70 in
Visibility 0.8 miles
Clouds Overcast 300 ft
Windchill 3 °F
Dew Point 10 °F
Humidity 92%
Rainfall 0.00 in
Snow Depth Not available.
7:33 AM 5:44 PM
New Moon, 0% visible
SPECI KDIJ 081545Z AUTO 13005KT 3/4SM BR OVC003 M11/M12 A3070 RMK AO2

10-Day Weather Forecast

Almanac

Astronomy

Feb. 08, 2016 Rise Set
Actual Time
Civil Twilight
Nautical Twilight
Astronomical Twilight
Moon
Length of Visible Light
Length of Day
Tomorrow will be .
, % of the Moon is Illuminated

Today's Extremes

State Highs State Lows

Community

WunderPhotos

Upload Photos

1,891,440 photos uploaded!

WunderBlog® & News

Nearby

Air Quality

  Air Quality AQ Index Pollutant
Not available.

Snow Depth

Station Depth Elevation

Earthquake Activity

City Distance Mag. Time & Date
Minimum magnitude displayed is 2.5.

Coastal Water Temperatures

Place Temperature

Stations

Nearby Weather Stations

Station Location Temp. Windchill Dew Point Humidity Wind Precip. Elev Updated Type
                   

Watches & Warnings

Dense Fog Advisory
Issued: 8:23 PM MST Feb. 7, 2016 – National Weather Service

... Dense fog advisory in effect until noon MST Monday...

The National Weather Service in Pocatello has issued a dense fog
advisory... which is in effect until noon MST Monday.

* Visibility... widespread visibility below one mile with areas
near zero.

* Impacts... near zero visibility will cause hazardous driving
conditions. Temperatures below freezing may allow ice to deposit
on roadways.

Precautionary/preparedness actions...

A dense fog advisory means visibilities will frequently be
reduced to less than one quarter mile. If driving... slow down...
use your headlights... and leave plenty of distance ahead of you.